| time (UTC) | temp C | wind direction | speed KPH | gust KPH | rain 1hr cm | rain 24hr cm | rain mn cm | humidity % | barometer mb |
| 20260507155458 | 16 | 202 | 4.8 | 22.5 | 0.00 | 0.00 | 0.00 | 55 | 1015.6 |
| 20260507154437 | 16 | 242 | 4.8 | 24.1 | 0.00 | 0.00 | 0.00 | 55 | 1015.8 |
| 20260507153449 | 16 | 213 | 3.2 | 24.1 | 0.00 | 0.00 | 0.00 | 56 | 1015.9 |
| 20260507150207 | 15 | 307 | 4.8 | 19.3 | 0.00 | 0.00 | 0.00 | 59 | 1016.3 |
| 20260507144056 | 15 | 5 | 1.6 | 16.1 | 0.00 | 0.00 | 0.00 | 61 | 1016.3 |
| 20260507143049 | 14 | 38 | 1.6 | 12.9 | 0.00 | 0.00 | 0.00 | 63 | 1016.3 |
| 20260507142106 | 14 | 254 | 1.6 | 11.3 | 0.00 | 0.00 | 0.00 | 63 | 1016.2 |
| 20260507141100 | 13 | 203 | 1.6 | 11.3 | 0.00 | 0.00 | 0.00 | 64 | 1016.4 |
| 20260507140042 | 13 | 196 | 1.6 | 11.3 | 0.00 | 0.00 | 0.00 | 67 | 1016.5 |
| 20260507133833 | 12 | 257 | 0.0 | 8.0 | 0.00 | 0.00 | 0.00 | 71 | 1016.5 |
| 20260507132820 | 11 | 312 | 0.0 | 8.0 | 0.00 | 0.00 | 0.00 | 73 | 1016.5 |
| 20260507131822 | 10 | 224 | 0.0 | 4.8 | 0.00 | 0.00 | 0.00 | 75 | 1016.5 |
| 20260507130809 | 10 | 284 | 0.0 | 4.8 | 0.00 | 0.00 | 0.00 | 77 | 1016.8 |
| 20260507124624 | 8 | 212 | 0.0 | 3.2 | 0.00 | 0.00 | 0.00 | 80 | 1016.8 |
| 20260507122500 | 7 | 198 | 0.0 | 0.0 | 0.00 | 0.00 | 0.00 | 80 | 1016.9 |
| 20260507121453 | 7 | 197 | 0.0 | 0.0 | 0.00 | 0.00 | 0.00 | 81 | 1016.9 |
| 20260507120442 | 7 | 197 | 0.0 | 0.0 | 0.00 | 0.00 | 0.00 | 81 | 1016.9 |
| 20260507115443 | 7 | 197 | 0.0 | 1.6 | 0.00 | 0.00 | 0.00 | 81 | 1016.8 |
| 20260507114504 | 7 | 250 | 0.0 | 0.0 | 0.00 | 0.00 | 0.00 | 80 | 1016.8 |
| 20260507111303 | 7 | 250 | 0.0 | 0.0 | 0.00 | 0.00 | 0.00 | 77 | 1016.6 |
| 20260507105141 | 7 | 250 | 0.0 | 0.0 | 0.00 | 0.00 | 0.00 | 76 | 1016.6 |
| 20260507101819 | 7 | 248 | 0.0 | 0.0 | 0.00 | 0.03 | 0.00 | 72 | 1016.6 |
| 20260507100816 | 7 | 248 | 0.0 | 0.0 | 0.00 | 0.03 | 0.00 | 72 | 1016.7 |
| 20260507095839 | 7 | 248 | 0.0 | 0.0 | 0.00 | 0.03 | 0.00 | 72 | 1016.7 |
| 20260507094809 | 7 | 248 | 0.0 | 0.0 | 0.00 | 0.03 | 0.00 | 73 | 1016.8 |
| 20260507093756 | 7 | 247 | 0.0 | 0.0 | 0.00 | 0.03 | 0.00 | 74 | 1016.8 |
| 20260507092816 | 7 | 247 | 0.0 | 0.0 | 0.00 | 0.03 | 0.00 | 74 | 1016.9 |
| 20260507091802 | 7 | 247 | 0.0 | 0.0 | 0.00 | 0.03 | 0.00 | 72 | 1016.9 |
| 20260507085637 | 7 | 247 | 0.0 | 0.0 | 0.00 | 0.03 | 0.00 | 71 | 1016.9 |
| 20260507084636 | 7 | 247 | 0.0 | 0.0 | 0.00 | 0.03 | 0.00 | 71 | 1016.9 |
| 20260507083640 | 7 | 247 | 0.0 | 0.0 | 0.00 | 0.03 | 0.00 | 71 | 1016.9 |
| 20260507081447 | 7 | 247 | 0.0 | 0.0 | 0.00 | 0.03 | 0.00 | 71 | 1017.0 |
| 20260507080446 | 7 | 338 | 0.0 | 0.0 | 0.00 | 0.03 | 0.00 | 71 | 1016.9 |
| 20260507075446 | 7 | 338 | 0.0 | 0.0 | 0.00 | 0.03 | 0.00 | 71 | 1016.9 |
| 20260507073308 | 8 | 338 | 0.0 | 0.0 | 0.00 | 0.03 | 0.00 | 68 | 1017.0 |
| 20260507072310 | 8 | 338 | 0.0 | 0.0 | 0.00 | 0.03 | 0.00 | 68 | 1017.1 |
| 20260507070131 | 8 | 338 | 0.0 | 0.0 | 0.00 | 0.03 | 0.00 | 69 | 1017.4 |
| 20260507065152 | 8 | 338 | 0.0 | 0.0 | 0.00 | 0.03 | 0.00 | 69 | 1017.5 |
| 20260507063100 | 8 | 338 | 0.0 | 0.0 | 0.00 | 0.03 | 0.00 | 69 | 1017.7 |
| 20260507062100 | 8 | 341 | 0.0 | 0.0 | 0.00 | 0.03 | 0.00 | 69 | 1017.6 |
| 20260507061055 | 8 | 341 | 0.0 | 0.0 | 0.00 | 0.03 | 0.00 | 68 | 1017.6 |
| 20260507060034 | 8 | 341 | 0.0 | 0.0 | 0.00 | 0.03 | 0.00 | 69 | 1017.6 |
| 20260507053825 | 8 | 342 | 0.0 | 0.0 | 0.00 | 0.03 | 0.00 | 67 | 1017.8 |
| 20260507052806 | 8 | 342 | 0.0 | 0.0 | 0.00 | 0.03 | 0.00 | 65 | 1017.8 |
| 20260507051752 | 9 | 342 | 0.0 | 0.0 | 0.00 | 0.03 | 0.00 | 62 | 1017.8 |
| 20260507050742 | 9 | 342 | 0.0 | 0.0 | 0.00 | 0.03 | 0.00 | 60 | 1017.7 |
| 20260507045749 | 10 | 342 | 0.0 | 0.0 | 0.00 | 0.03 | 0.03 | 59 | 1017.8 |
| 20260507044755 | 10 | 342 | 0.0 | 0.0 | 0.00 | 0.03 | 0.03 | 56 | 1017.8 |
| 20260507043736 | 10 | 342 | 0.0 | 0.0 | 0.00 | 0.03 | 0.03 | 54 | 1017.7 |
| 20260507041522 | 10 | 342 | 0.0 | 0.0 | 0.00 | 0.03 | 0.03 | 52 | 1017.7 |
| 20260507040453 | 10 | 342 | 0.0 | 0.0 | 0.00 | 0.03 | 0.03 | 52 | 1017.9 |
| 20260507034420 | 10 | 342 | 0.0 | 0.0 | 0.00 | 0.03 | 0.03 | 49 | 1018.0 |
| 20260507032330 | 11 | 342 | 0.0 | 0.0 | 0.00 | 0.03 | 0.03 | 49 | 1017.8 |
| 20260507031335 | 10 | 342 | 0.0 | 0.0 | 0.00 | 0.03 | 0.03 | 47 | 1017.8 |
| 20260507030340 | 11 | 342 | 0.0 | 0.0 | 0.00 | 0.03 | 0.03 | 45 | 1017.8 |
| 20260507025318 | 11 | 342 | 0.0 | 0.0 | 0.00 | 0.03 | 0.03 | 45 | 1017.8 |
| 20260507024254 | 11 | 342 | 0.0 | 0.0 | 0.00 | 0.03 | 0.03 | 45 | 1017.7 |
| 20260507022207 | 11 | 342 | 0.0 | 0.0 | 0.00 | 0.03 | 0.03 | 45 | 1017.5 |
| 20260507021134 | 11 | 342 | 0.0 | 0.0 | 0.00 | 0.03 | 0.03 | 47 | 1017.5 |
| 20260507020150 | 11 | 342 | 0.0 | 0.0 | 0.00 | 0.03 | 0.03 | 48 | 1017.4 |
| 20260507015126 | 11 | 342 | 0.0 | 0.0 | 0.00 | 0.03 | 0.03 | 45 | 1017.3 |
| 20260507014123 | 12 | 342 | 0.0 | 0.0 | 0.00 | 0.03 | 0.03 | 45 | 1017.3 |
| 20260507013103 | 12 | 342 | 0.0 | 0.0 | 0.00 | 0.03 | 0.03 | 45 | 1017.3 |
| 20260507012056 | 12 | 342 | 0.0 | 0.0 | 0.00 | 0.03 | 0.03 | 42 | 1017.0 |
| 20260507011030 | 13 | 342 | 0.0 | 0.0 | 0.00 | 0.03 | 0.03 | 40 | 1016.9 |
| 20260507004827 | 14 | 342 | 0.0 | 0.0 | 0.00 | 0.03 | 0.03 | 38 | 1016.9 |
| 20260507002626 | 15 | 304 | 1.6 | 6.4 | 0.00 | 0.03 | 0.03 | 35 | 1016.8 |
| 20260507001615 | 15 | 323 | 0.0 | 6.4 | 0.00 | 0.03 | 0.03 | 35 | 1016.8 |
| 20260507000556 | 15 | 306 | 0.0 | 1.6 | 0.00 | 0.03 | 0.03 | 35 | 1016.8 |
| 20260506235550 | 15 | 307 | 0.0 | 0.0 | 0.00 | 0.03 | 0.03 | 35 | 1016.9 |
| 20260506234542 | 15 | 302 | 0.0 | 4.8 | 0.00 | 0.03 | 0.03 | 33 | 1016.9 |
| 20260506233603 | 15 | 321 | 1.6 | 11.3 | 0.00 | 0.03 | 0.03 | 34 | 1016.9 |
| 20260506232600 | 16 | 316 | 1.6 | 8.0 | 0.00 | 0.03 | 0.03 | 33 | 1016.8 |
| 20260506231615 | 16 | 284 | 3.2 | 9.7 | 0.00 | 0.03 | 0.03 | 33 | 1016.8 |
| 20260506230636 | 16 | 309 | 1.6 | 9.7 | 0.00 | 0.03 | 0.03 | 32 | 1016.8 |
| 20260506225604 | 16 | 328 | 1.6 | 6.4 | 0.00 | 0.03 | 0.03 | 34 | 1016.8 |
| 20260506224534 | 16 | 344 | 1.6 | 8.0 | 0.00 | 0.03 | 0.03 | 32 | 1016.9 |
| 20260506223540 | 16 | 40 | 1.6 | 8.0 | 0.00 | 0.03 | 0.03 | 32 | 1016.8 |
| 20260506222548 | 16 | 136 | 0.0 | 4.8 | 0.00 | 0.03 | 0.03 | 33 | 1016.8 |
| 20260506221557 | 16 | 9 | 1.6 | 3.2 | 0.00 | 0.03 | 0.03 | 32 | 1017.0 |
| 20260506220601 | 17 | 118 | 1.6 | 11.3 | 0.00 | 0.03 | 0.03 | 32 | 1017.0 |
| 20260506215527 | 16 | 276 | 1.6 | 11.3 | 0.00 | 0.03 | 0.03 | 34 | 1017.1 |
| 20260506213406 | 16 | 111 | 3.2 | 16.1 | 0.00 | 0.03 | 0.03 | 33 | 1017.3 |
| 20260506212405 | 17 | 307 | 1.6 | 11.3 | 0.00 | 0.03 | 0.03 | 35 | 1017.2 |
| 20260506210212 | 16 | 0 | 1.6 | 12.9 | 0.00 | 0.03 | 0.03 | 34 | 1017.7 |
| 20260506205204 | 16 | 0 | 1.6 | 12.9 | 0.00 | 0.03 | 0.03 | 33 | 1017.9 |
| 20260506204142 | 16 | 297 | 1.6 | 11.3 | 0.00 | 0.03 | 0.03 | 35 | 1017.9 |
| 20260506202009 | 16 | 94 | 1.6 | 12.9 | 0.00 | 0.03 | 0.03 | 34 | 1018.1 |
| 20260506201031 | 15 | 332 | 3.2 | 12.9 | 0.00 | 0.03 | 0.03 | 34 | 1018.3 |
| 20260506200039 | 16 | 284 | 1.6 | 11.3 | 0.00 | 0.03 | 0.03 | 34 | 1018.5 |
| 20260506195101 | 16 | 235 | 0.0 | 4.8 | 0.00 | 0.03 | 0.03 | 35 | 1018.5 |
| 20260506194050 | 15 | 306 | 1.6 | 11.3 | 0.00 | 0.03 | 0.03 | 34 | 1018.7 |
| 20260506193036 | 15 | 57 | 1.6 | 11.3 | 0.00 | 0.03 | 0.03 | 35 | 1018.6 |
| 20260506190923 | 15 | 343 | 1.6 | 8.0 | 0.00 | 0.03 | 0.03 | 38 | 1018.7 |
| 20260506185924 | 15 | 46 | 1.6 | 8.0 | 0.00 | 0.03 | 0.03 | 34 | 1018.8 |
| 20260506184916 | 15 | 142 | 1.6 | 11.3 | 0.00 | 0.03 | 0.03 | 36 | 1019.0 |
| 20260506183934 | 14 | 313 | 3.2 | 12.9 | 0.00 | 0.03 | 0.03 | 37 | 1019.1 |
| 20260506182906 | 13 | 285 | 1.6 | 12.9 | 0.00 | 0.05 | 0.03 | 39 | 1019.0 |
| 20260506181901 | 13 | 304 | 3.2 | 11.3 | 0.00 | 0.05 | 0.03 | 39 | 1019.3 |
| 20260506180841 | 13 | 323 | 1.6 | 8.0 | 0.00 | 0.05 | 0.03 | 38 | 1019.1 |
| 20260506174715 | 13 | 275 | 3.2 | 14.5 | 0.00 | 0.05 | 0.03 | 38 | 1019.3 |
| 20260506172602 | 13 | 17 | 3.2 | 12.9 | 0.00 | 0.05 | 0.03 | 38 | 1019.4 |
| 20260506171559 | 13 | 9 | 1.6 | 6.4 | 0.00 | 0.08 | 0.03 | 38 | 1019.2 |
| 20260506170603 | 13 | 296 | 3.2 | 11.3 | 0.00 | 0.08 | 0.03 | 39 | 1019.4 |
| 20260506164409 | 13 | 321 | 1.6 | 11.3 | 0.00 | 0.08 | 0.03 | 37 | 1019.4 |
| 20260506163432 | 13 | 107 | 1.6 | 8.0 | 0.00 | 0.13 | 0.03 | 41 | 1019.3 |
| 20260506161312 | 12 | 96 | 3.2 | 11.3 | 0.00 | 0.13 | 0.03 | 40 | 1019.1 |
| 20260506160318 | 13 | 336 | 1.6 | 14.5 | 0.00 | 0.18 | 0.03 | 41 | 1019.2 |